EW1687 Weather Reports


time (UTC)temp
F
wind
direction
speed
knots
gust
knots
rain 1hr
in
rain 24hr
in
rain mn
in
humidity
%
barometer
mb
20260504050551 42 0 0.0 0.0 0.00 0.00 0.00 75 1015.3
20260504045557 42 0 0.0 0.0 0.00 0.00 0.00 75 1015.5
20260504045052 43 0 0.0 0.0 0.00 0.00 0.00 75 1015.5
20260504044554 43 0 0.0 0.0 0.00 0.00 0.00 75 1015.5
20260504044050 43 0 0.0 2.6 0.00 0.00 0.00 74 1015.5
20260504043550 43 0 0.0 2.6 0.00 0.00 0.00 73 1015.4
20260504043112 43 242 0.9 2.6 0.00 0.00 0.00 73 1015.4
20260504042550 43 0 0.0 0.0 0.00 0.00 0.00 74 1015.4
20260504042055 43 0 0.0 0.0 0.00 0.00 0.00 74 1015.5
20260504041551 44 0 0.0 0.0 0.00 0.00 0.00 73 1015.5
20260504041050 44 0 0.0 0.0 0.00 0.00 0.00 73 1015.4
20260504040553 44 0 0.0 0.0 0.00 0.00 0.00 73 1015.3
20260504040051 44 0 0.0 0.0 0.00 0.00 0.00 73 1015.4
20260504035553 45 0 0.0 0.0 0.00 0.00 0.00 72 1015.2
20260504035050 45 0 0.0 0.0 0.00 0.00 0.00 72 1015.3
20260504034554 45 0 0.0 0.0 0.00 0.00 0.00 71 1015.2
20260504034053 45 0 0.0 0.0 0.00 0.00 0.00 70 1015.2
20260504033554 46 0 0.0 0.0 0.00 0.00 0.00 71 1015.2
20260504033102 46 0 0.0 0.0 0.00 0.00 0.00 70 1015.1
20260504032553 46 0 0.0 0.0 0.00 0.00 0.00 69 1015.2
20260504032050 46 0 0.0 0.0 0.00 0.00 0.00 66 1015.1
20260504031556 46 0 0.0 0.0 0.00 0.00 0.00 66 1015.1
20260504031050 46 0 0.0 0.0 0.00 0.00 0.00 65 1015.1
20260504030550 46 0 0.0 0.0 0.00 0.00 0.00 64 1015.0
20260504030109 47 0 0.0 0.0 0.00 0.00 0.00 63 1015.0
20260504025550 47 0 0.0 0.0 0.00 0.00 0.00 63 1014.9
20260504025054 47 0 0.0 0.0 0.00 0.00 0.00 63 1014.9
20260504024553 48 0 0.0 0.0 0.00 0.00 0.00 62 1014.9
20260504024050 48 0 0.0 0.0 0.00 0.00 0.00 63 1014.8
20260504023550 48 0 0.0 0.0 0.00 0.00 0.00 63 1014.9
20260504023057 48 0 0.0 2.6 0.00 0.00 0.00 64 1014.7
20260504022551 49 0 0.0 2.6 0.00 0.00 0.00 60 1014.8
20260504022054 49 0 0.9 2.6 0.00 0.00 0.00 57 1014.8
20260504021555 49 0 0.0 0.9 0.00 0.00 0.00 55 1014.7
20260504021051 49 0 0.0 0.0 0.00 0.00 0.00 55 1014.8
20260504020552 49 0 0.0 0.0 0.00 0.00 0.00 54 1014.9
20260504020057 49 0 0.0 1.7 0.00 0.00 0.00 53 1014.8
20260504015552 50 0 0.0 3.5 0.00 0.00 0.00 54 1014.8
20260504015052 50 242 0.9 3.5 0.00 0.00 0.00 55 1014.7
20260504014554 50 242 0.0 2.6 0.00 0.00 0.00 55 1014.7
20260504014051 50 242 1.7 2.6 0.00 0.00 0.00 52 1014.8
20260504013554 50 242 0.0 3.5 0.00 0.00 0.00 53 1014.7
20260504013055 50 0 0.0 3.5 0.00 0.00 0.00 54 1014.7
20260504012552 50 242 1.7 3.5 0.00 0.00 0.00 54 1014.6
20260504012051 51 275 1.7 3.5 0.00 0.00 0.00 55 1014.5
20260504011553 51 276 0.0 2.6 0.00 0.00 0.00 52 1014.5
20260504011050 51 0 0.0 1.7 0.00 0.00 0.00 50 1014.4
20260504010553 52 0 0.0 2.6 0.00 0.00 0.00 51 1014.4
20260504010059 52 276 0.0 2.6 0.00 0.00 0.00 50 1014.5
20260504005550 53 276 0.9 2.6 0.00 0.00 0.00 47 1014.2
20260504005050 53 276 0.0 2.6 0.00 0.00 0.00 46 1014.4
20260504004551 54 276 0.9 2.6 0.00 0.00 0.00 46 1014.3
20260504004051 54 276 1.7 2.6 0.00 0.00 0.00 45 1014.5
20260504003550 55 0 0.9 3.5 0.00 0.00 0.00 43 1014.4
20260504003053 56 277 1.7 5.2 0.00 0.00 0.00 41 1014.2
20260504002553 56 277 1.7 5.2 0.00 0.00 0.00 40 1014.0
20260504002054 56 276 2.6 5.2 0.00 0.00 0.00 39 1014.1
20260504001558 56 276 2.6 6.1 0.00 0.00 0.00 40 1014.1
20260504001050 57 276 2.6 6.1 0.00 0.00 0.00 39 1014.1
20260504000549 57 276 2.6 7.0 0.00 0.00 0.00 39 1013.9
20260504000058 57 277 3.5 7.0 0.00 0.00 0.00 39 1014.0
20260503235549 58 279 3.5 7.0 0.00 0.00 0.00 38 1013.9
20260503235053 58 279 3.5 6.1 0.00 0.00 0.00 38 1013.8
20260503234553 58 286 2.6 7.0 0.00 0.00 0.00 38 1013.8
20260503234051 58 283 3.5 8.7 0.00 0.00 0.00 37 1013.7
20260503233550 59 271 5.2 8.7 0.00 0.00 0.00 37 1013.6
20260503233053 59 271 4.3 7.0 0.00 0.00 0.00 37 1013.5
20260503232555 59 265 3.5 8.7 0.00 0.00 0.00 37 1013.7
20260503232051 59 291 4.3 10.4 0.00 0.00 0.00 36 1013.5
20260503231555 60 278 5.2 11.3 0.00 0.00 0.00 35 1013.4
20260503231051 60 284 6.1 11.3 0.00 0.00 0.00 36 1013.6
20260503230552 60 281 7.0 11.3 0.00 0.00 0.00 36 1013.7
20260503230110 60 279 6.1 10.4 0.00 0.00 0.00 36 1013.7
20260503225552 61 273 6.1 10.4 0.00 0.00 0.00 34 1013.6
20260503225052 61 268 5.2 9.6 0.00 0.00 0.00 35 1013.6
20260503224552 61 265 6.1 11.3 0.00 0.00 0.00 33 1013.6
20260503224052 62 291 6.1 11.3 0.00 0.00 0.00 33 1013.6
20260503223552 62 298 6.1 10.4 0.00 0.00 0.00 33 1013.5
20260503223109 61 286 6.1 10.4 0.00 0.00 0.00 34 1013.6
20260503222551 61 319 6.1 14.8 0.00 0.00 0.00 34 1013.7
20260503222051 61 274 10.4 14.8 0.00 0.00 0.00 34 1013.7
20260503221556 61 252 7.0 15.6 0.00 0.00 0.00 33 1013.7
20260503221052 61 292 8.7 15.6 0.00 0.00 0.00 32 1013.8
20260503220553 62 288 5.2 10.4 0.00 0.00 0.00 32 1013.7
20260503220057 62 284 6.1 11.3 0.00 0.00 0.00 33 1013.9
20260503215551 61 296 7.0 13.9 0.00 0.00 0.00 34 1014.0
20260503215052 62 273 8.7 13.9 0.00 0.00 0.00 33 1013.8
20260503214556 62 281 5.2 13.9 0.00 0.00 0.00 31 1013.9
20260503214052 62 312 7.8 13.0 0.00 0.00 0.00 34 1013.7
20260503213552 61 297 8.7 13.0 0.00 0.00 0.00 35 1013.7
20260503213056 62 292 7.0 15.6 0.00 0.00 0.00 32 1013.8
20260503212552 62 295 10.4 15.6 0.00 0.00 0.00 32 1013.8
20260503212052 62 262 7.0 14.8 0.00 0.00 0.00 34 1013.8
20260503211551 61 301 7.8 14.8 0.00 0.00 0.00 34 1013.6
20260503211052 62 277 9.6 14.8 0.00 0.00 0.00 34 1013.6
20260503210553 62 292 6.1 13.9 0.00 0.00 0.00 32 1013.7
20260503210052 62 291 7.8 18.2 0.00 0.00 0.00 32 1013.7
20260503205552 62 315 7.0 18.2 0.00 0.00 0.00 32 1013.7
20260503205053 63 296 8.7 14.8 0.00 0.00 0.00 33 1013.7
20260503204554 62 256 9.6 16.5 0.00 0.00 0.00 33 1013.6
20260503204051 62 290 7.0 16.5 0.00 0.00 0.00 33 1013.7
20260503203552 61 270 6.1 10.4 0.00 0.00 0.00 33 1013.7
20260503203053 60 284 6.1 10.4 0.00 0.00 0.00 37 1013.6
20260503202551 60 322 5.2 13.9 0.00 0.00 0.00 36 1013.8
20260503202051 60 300 7.8 19.1 0.00 0.00 0.00 35 1013.8
20260503201555 61 310 10.4 19.1 0.00 0.00 0.00 32 1013.9
20260503201052 61 263 9.6 14.8 0.00 0.00 0.00 32 1013.8
20260503200550 61 286 5.2 12.2 0.00 0.00 0.00 35 1013.9
20260503200054 61 306 8.7 13.9 0.00 0.00 0.00 33 1013.8
20260503195554 61 289 7.8 13.9 0.00 0.00 0.00 35 1014.0
20260503195050 61 309 7.8 15.6 0.00 0.00 0.00 36 1014.0
20260503194606 61 281 10.4 17.4 0.00 0.00 0.00 33 1014.2
20260503194053 62 299 12.2 17.4 0.00 0.00 0.00 31 1014.2
20260503193554 61 331 8.7 13.9 0.00 0.00 0.00 33 1014.2
20260503193053 60 311 5.2 11.3 0.00 0.00 0.00 34 1014.2
20260503192554 60 303 7.0 14.8 0.00 0.00 0.00 35 1014.3
20260503192057 60 281 8.7 14.8 0.00 0.00 0.00 33 1014.5
20260503191600 60 292 5.2 13.9 0.00 0.00 0.00 34 1014.5
20260503191055 59 259 6.1 17.4 0.00 0.00 0.00 37 1014.7
20260503190555 59 282 10.4 17.4 0.00 0.00 0.00 32 1014.7
20260503190053 59 255 9.6 16.5 0.00 0.00 0.00 35 1014.6
20260503185553 59 302 8.7 13.0 0.00 0.00 0.00 34 1014.7
20260503185056 60 262 8.7 13.0 0.00 0.00 0.00 34 1014.9
20260503184555 60 311 6.1 18.2 0.00 0.00 0.00 35 1015.0
20260503184054 59 350 6.1 22.6 0.00 0.00 0.00 36 1015.0
20260503183555 59 280 12.2 22.6 0.00 0.00 0.00 35 1015.1
20260503183058 59 304 9.6 18.2 0.00 0.00 0.00 37 1014.9
20260503182554 59 279 8.7 17.4 0.00 0.00 0.00 37 1015.1
20260503182054 59 329 6.1 19.1 0.00 0.00 0.00 35 1015.1
20260503181605 58 272 10.4 19.1 0.00 0.00 0.00 35 1015.2
20260503181057 58 265 7.0 15.6 0.00 0.00 0.00 38 1015.2
20260503180553 57 281 8.7 15.6 0.00 0.00 0.00 37 1015.3
20260503180054 57 266 6.1 15.6 0.00 0.00 0.00 37 1015.2
20260503175554 58 319 6.1 15.6 0.00 0.00 0.00 37 1015.5
20260503175056 59 306 7.8 13.0 0.00 0.00 0.00 40 1015.2
20260503174604 57 263 8.7 15.6 0.00 0.00 0.00 41 1015.3
20260503174054 57 277 6.1 18.2 0.00 0.00 0.00 36 1015.3
20260503173554 57 296 10.4 18.2 0.00 0.00 0.00 37 1015.5
20260503173105 58 315 9.6 17.4 0.00 0.00 0.00 38 1015.4
20260503172553 57 296 7.8 13.9 0.00 0.00 0.00 42 1015.4
20260503172051 57 308 7.8 14.8 0.00 0.00 0.00 38 1015.5
20260503171554 57 302 9.6 16.5 0.00 0.00 0.00 39 1015.4
20260503171051 57 305 7.8 16.5 0.00 0.00 0.00 39 1015.5
20260503170552 57 275 6.1 13.0 0.00 0.00 0.00 39 1015.5
20260503170105 57 317 7.8 13.0 0.00 0.00 0.00 37 1015.4
20260503150552 53 284 12.2 20.9 0.00 0.00 0.00 41 1016.5
20260503131051 46 350 4.3 10.4 0.00 0.00 0.00 55 1016.6
20260503130551 46 288 5.2 10.4 0.00 0.00 0.00 56 1016.7
20260503120107 43 277 5.2 11.3 0.00 0.00 0.00 63 1016.5
20260503110551 41 320 4.3 8.7 0.00 0.00 0.00 65 1015.9
20260503081552 44 284 6.1 11.3 0.00 0.00 0.00 63 1013.9
20260503081053 44 283 6.1 9.6 0.00 0.00 0.00 62 1013.9
20260503080552 44 278 7.0 10.4 0.00 0.00 0.00 62 1014.0
20260503072556 44 286 4.3 10.4 0.00 0.00 0.00 60 1013.6
20260503072052 44 302 4.3 10.4 0.00 0.00 0.00 61 1013.7
20260503071555 44 313 5.2 10.4 0.00 0.00 0.00 61 1013.7
20260503071051 44 291 6.1 10.4 0.00 0.00 0.00 61 1013.5
20260503070555 44 301 6.1 10.4 0.00 0.00 0.00 61 1013.7